This demonstration page uses our WeatherBlox Daily Observations layout. Learn more.

Left ArrowRight Arrow

31.31129, -92.44514

Hourly Observations for August 24, 2016

Temp ( °F °C ) Dew Point ( °F °C ) Humidity (%) Winds ( mph kmh ) Pressure ( in mb ) Visibility ( mi km ) Precip ( " mm )
12:53 am 00:53 Clear 77 25 76 24.4 96 96 SE 3 6 30.14 1021 10 16 0.00 0.00
1:53 am 01:53 Clear 77 25 76 24.4 96 96 Calm 30.14 1021 10 16 0.00 0.00
2:53 am 02:53 Clear 77 25 75 23.9 94 94 Calm 30.12 1020 9 14 0.00 0.00
3:53 am 03:53 Clear 75 23.9 75 23.9 100 100 Calm 30.11 1020 7 11 0.00 0.00
4:53 am 04:53 Clear 76 24.4 75 23.9 97 97 Calm 30.11 1020 7 11 0.00 0.00
5:53 am 05:53 Clear 75 23.9 75 23.9 100 100 Calm 30.12 1020 7 11 0.00 0.00
6:53 am 06:53 Sunny with Mist and Fog 75 23.9 74 23.3 96 96 Calm 30.13 1020 6 10 0.00 0.00
7:53 am 07:53 Sunny with Mist and Fog 78 25.6 76 24.4 93 93 Calm 30.14 1021 6 10 0.00 0.00
8:53 am 08:53 Sunny 82 27.8 77 25 85 85 Calm 30.15 1021 8 13 0.00 0.00
9:12 am 09:12 Mostly Sunny 82 27.8 77 25 85 85 Calm 30.15 1021 9 14 0.00 0.00
9:53 am 09:53 Sunny 84 28.9 78 25.6 82 82 Calm 30.16 1021 9 14 0.00 0.00
10:53 am 10:53 Sunny 88 31.1 76 24.4 68 68 S 6 9 30.16 1021 10 16 0.00 0.00
11:53 am 11:53 Sunny 90 32.2 73 22.8 58 58 S 6 9 30.15 1021 10 16 0.00 0.00
12:53 pm 12:53 Partly Cloudy 92 33.3 74 23.3 56 56 VRB 7 11 30.13 1020 10 16 0.00 0.00
1:53 pm 13:53 Mostly Sunny 91 32.8 75 23.9 59 59 SSW 6 9 30.12 1020 10 16 0.00 0.00
2:53 pm 14:53 Mostly Sunny 93 33.9 75 23.9 56 56 S 5 7 30.09 1019 10 16 0.00 0.00
3:53 pm 15:53 Sunny 93 33.9 74 23.3 54 54 VRB 5 7 30.06 1018 10 16 0.00 0.00
4:53 pm 16:53 Partly Cloudy 95 35 74 23.3 51 51 SW 3 6 30.05 1018 10 16 0.00 0.00
5:24 pm 17:24 Mostly Cloudy with Nearby Thunderstorms 84 28.9 74 23.3 72 72 E 23 37 30.09 1019 8 13 0.00 0.00
5:26 pm 17:26 Windy with Storms Likely 84 28.9 75 23.9 74 74 E 21 33 30.09 1019 5 8 0.00 0.03
5:29 pm 17:29 Mostly Cloudy with Thunderstorms 82 27.8 77 25 85 85 E 28 44 30.09 1019 2 3 0.04 1.02
5:38 pm 17:38 Cloudy with Strong Thunderstorms 79 26.1 73 22.8 82 82 NE 20 31 30.09 1019 1 1 0.21 5.33
5:41 pm 17:41 Cloudy with Strong Thunderstorms 78 25.6 73 22.8 85 85 NNE 14 22 30.09 1019 1 2 0.21 5.33
5:45 pm 17:45 Cloudy with Thunderstorms 77 25 73 22.8 88 88 NNE 13 20 30.09 1019 3 5 0.21 5.33
5:53 pm 17:53 Cloudy with Thunderstorms 77 25 74 23.3 90 90 NNW 7 11 30.09 1019 10 16 0.21 5.33
6:13 pm 18:13 Mostly Cloudy with Nearby Thunderstorms 78 25.6 75 23.9 90 90 N 3 6 30.06 1018 9 14 0.00 0.03
6:23 pm 18:23 Mostly Cloudy with Thunderstorms 77 25 76 24.4 96 96 SW 3 6 30.06 1018 7 11 0.00 0.03
6:51 pm 18:51 Mostly Cloudy 79 26 75 24 89 89 Calm 30.06 1018 10 16 0.00 0.03
6:53 pm 18:53 Mostly Cloudy 79 26.1 76 24.4 90 90 Calm 30.07 1018 10 16 0.00 0.03
7:53 pm 19:53 Mostly Clear 79 26.1 77 25 94 94 WNW 3 6 30.08 1019 10 16 0.00 0.00
8:53 pm 20:53 Partly Cloudy 79 26.1 78 25.6 97 97 Calm 30.08 1019 7 11 0.00 0.00
9:53 pm 21:53 Clear 78 25.6 77 25 97 97 Calm 30.08 1019 7 11 0.00 0.00
10:53 pm 22:53 Clear 78 25.6 76 24.4 93 93 Calm 30.07 1018 9 14 0.00 0.00
11:53 pm 23:53 Clear 78 25.6 76 24.4 93 93 E 3 6 30.08 1019 8 13 0.00 0.00

Powered by AerisWeather